Waarnemingen

Advertentie
Mijn weer
Ponza, Italië (16280): temperatuur & dauwpunt: 17.07.2018 02:00:00 - 23.07.2018 02:00:00 (CEST)Ponza, Italië (16280): windsnelheid: 17.07.2018 02:00:00 - 23.07.2018 02:00:00 (CEST)Ponza, Italië (16280): windrichting: 17.07.2018 02:00:00 - 23.07.2018 02:00:00 (CEST)Ponza, Italië (16280): luchtdruk: 17.07.2018 02:00:00 - 23.07.2018 02:00:00 (CEST)Ponza, Italië (16280): zicht: 17.07.2018 02:00:00 - 23.07.2018 02:00:00 (CEST)Ponza, Italië (16280): Zonneschijnduur: 17.07.2018 02:00:00 - 23.07.2018 02:00:00 (CEST)
Datum & Tijd tt [°C] td [°C] ff [km/u] ff [kn] dd ppp [hPa] vv [km] sd [min]
23.07.2018 02:00:00 23,8 23,0 16 9 WNW 1010,2 10 -
23.07.2018 01:00:00 23,2 22,7 13 7 W 1010,1 10 -
23.07.2018 00:00:00 23,2 22,0 13 7 W 1011,1 10 -
22.07.2018 23:00:00 21,4 20,9 13 7 NW 1010,4 10 -
22.07.2018 22:00:00 23,6 22,8 13 7 WNW 1010,3 10 -
22.07.2018 21:00:00 23,8 22,8 13 7 NW 1010,0 10 -
22.07.2018 20:00:00 23,8 23,1 15 8 WNW 1009,6 10 0
22.07.2018 19:00:00 24,4 23,4 21 11 W 1009,6 10 18
22.07.2018 18:00:00 26,2 24,2 16 9 W 1009,8 10 48
22.07.2018 17:00:00 26,8 24,5 16 9 W 1010,0 10 60
22.07.2018 16:00:00 27,6 25,6 15 8 WNW 1009,9 10 54
22.07.2018 15:00:00 26,0 24,4 15 8 WNW 1010,0 10 54
22.07.2018 14:00:00 27,4 26,0 21 11 WNW 1010,5 8 60
22.07.2018 13:00:00 26,8 24,7 16 9 WNW 1010,5 6 30
22.07.2018 12:00:00 26,2 24,6 18 10 WNW 1010,3 6 60
22.07.2018 11:00:00 26,4 24,3 16 9 WNW 1009,9 4,0 48
22.07.2018 10:00:00 26,4 24,6 13 7 WNW 1009,5 5 0
22.07.2018 09:00:00 25,0 23,8 9 5 W 1009,1 4,0 0
22.07.2018 08:00:00 26,0 25,3 4 2 W 1008,8 2,0 0
22.07.2018 07:00:00 24,6 23,7 4 2 WZW 1008,4 4,0 0
22.07.2018 06:00:00 - - - - - - - -
22.07.2018 05:00:00 24,4 23,4 0 0 N 1008,0 7 -
22.07.2018 04:00:00 24,4 23,2 4 2 O 1008,2 8 -
22.07.2018 03:00:00 25,0 23,8 4 2 N 1008,5 10 -
22.07.2018 02:00:00 25,0 23,8 4 2 NW 1008,9 10 -
22.07.2018 01:00:00 25,2 24,0 9 5 Z 1008,9 10 -
22.07.2018 00:00:00 25,2 24,2 13 7 Z 1008,6 10 -
21.07.2018 23:00:00 25,0 23,6 9 5 OZO 1009,1 10 -
21.07.2018 22:00:00 25,0 24,0 13 7 OZO 1009,0 10 -
21.07.2018 21:00:00 24,8 24,3 21 11 OZO 1008,8 10 -
21.07.2018 20:00:00 25,0 23,6 21 11 OZO 1009,0 10 0
21.07.2018 19:00:00 25,0 23,8 22 12 OZO 1009,7 10 30
21.07.2018 18:00:00 25,4 24,2 22 12 O 1010,0 10 60
21.07.2018 17:00:00 25,0 23,8 35 19 OZO 1009,1 10 60
21.07.2018 16:00:00 26,0 23,9 28 15 O 1010,3 10 60
21.07.2018 15:00:00 25,4 23,8 35 19 OZO 1011,0 10 60
21.07.2018 14:00:00 25,6 23,8 28 15 O 1012,1 10 30
21.07.2018 13:00:00 26,4 25,4 21 11 OZO 1013,0 10 48
21.07.2018 12:00:00 26,0 24,6 26 14 OZO 1012,1 10 60
21.07.2018 11:00:00 25,2 23,6 31 17 OZO 1012,0 10 60
21.07.2018 10:00:00 24,8 23,8 26 14 OZO 1012,6 - 30
21.07.2018 09:00:00 24,4 23,4 26 14 O 1011,8 10 42
21.07.2018 08:00:00 24,6 22,7 21 11 O 1012,6 10 42
21.07.2018 07:00:00 23,6 22,4 13 7 O 1013,1 10 0
21.07.2018 06:00:00 22,4 21,6 5 3 OZO 1013,0 10 -
21.07.2018 05:00:00 23,0 20,3 4 2 Z 1012,8 10 -
21.07.2018 04:00:00 23,0 22,3 0 0 N 1013,0 10 -
21.07.2018 03:00:00 23,0 22,3 5 3 Z 1013,2 20 -
21.07.2018 02:00:00 23,4 22,0 4 2 Z 1013,3 20 -
21.07.2018 01:00:00 23,4 22,5 4 2 W 1013,2 20 -
21.07.2018 00:00:00 23,2 22,0 8 4 WNW 1013,4 20 -
20.07.2018 23:00:00 23,6 22,9 11 6 W 1013,3 10 -
20.07.2018 22:00:00 24,0 23,5 11 6 W 1012,7 10 -
20.07.2018 21:00:00 24,2 23,7 11 6 W 1012,7 10 -
20.07.2018 20:00:00 25,6 25,1 15 8 WZW 1013,0 10 42
20.07.2018 19:00:00 27,4 25,8 11 6 W 1012,9 10 60
20.07.2018 18:00:00 28,2 26,2 9 5 WNW 1013,1 10 60
20.07.2018 17:00:00 28,6 26,0 11 6 WNW 1013,1 10 60
20.07.2018 16:00:00 27,2 25,8 16 9 WZW 1013,2 10 60
20.07.2018 15:00:00 27,4 25,4 16 9 WZW 1013,3 10 60
20.07.2018 14:00:00 27,6 25,2 9 5 WZW 1013,5 10 60
20.07.2018 13:00:00 27,8 25,6 9 5 WZW 1013,6 15 60
20.07.2018 12:00:00 26,4 24,4 4 2 ONO 1013,6 10 54
20.07.2018 11:00:00 26,0 24,2 4 2 WZW 1013,3 10 54
20.07.2018 10:00:00 25,4 23,7 5 3 WNW 1013,2 10 60
20.07.2018 09:00:00 25,0 23,4 9 5 WNW 1013,1 10 60
20.07.2018 08:00:00 24,0 23,0 13 7 WNW 1012,5 10 60
20.07.2018 07:00:00 23,4 22,5 15 8 WNW 1012,5 20 18
20.07.2018 06:00:00 23,2 22,4 15 8 WNW 1012,6 20 -
20.07.2018 05:00:00 23,2 22,5 16 9 WNW 1012,3 20 -
20.07.2018 04:00:00 23,2 22,5 16 9 WNW 1012,7 30 -
20.07.2018 03:00:00 23,2 22,5 15 8 WNW 1013,3 30 -
20.07.2018 02:00:00 - - - - - - - -
20.07.2018 01:00:00 23,4 22,5 15 8 W 1013,1 30 -
20.07.2018 00:00:00 - - - - - - - -
19.07.2018 23:00:00 23,6 22,9 11 6 WNW 1013,0 20 -
19.07.2018 22:00:00 24,0 23,2 9 5 WNW 1012,9 30 -
19.07.2018 21:00:00 24,4 23,9 13 7 WNW 1012,6 30 -
19.07.2018 20:00:00 25,2 22,3 13 7 WNW 1012,5 30 0
19.07.2018 19:00:00 26,4 24,4 11 6 WNW 1012,5 30 60
19.07.2018 18:00:00 27,6 24,5 13 7 WNW 1013,0 20 60
19.07.2018 17:00:00 28,0 25,0 11 6 W 1013,3 20 60
19.07.2018 16:00:00 28,6 25,2 11 6 W 1013,6 20 60
19.07.2018 15:00:00 28,4 25,0 15 8 WZW 1013,5 20 60
19.07.2018 14:00:00 28,4 25,4 9 5 WZW 1013,4 20 60
19.07.2018 13:00:00 29,4 26,8 4 2 W 1013,2 10 60
19.07.2018 12:00:00 29,2 25,6 4 2 N 1013,0 10 60
19.07.2018 11:00:00 27,4 24,1 5 3 N 1013,0 4,0 60
19.07.2018 10:00:00 - - - - - - - -
19.07.2018 09:00:00 25,0 24,1 11 6 N 1013,1 7 60
19.07.2018 08:00:00 24,6 23,6 11 6 N 1012,0 10 36
19.07.2018 07:00:00 - - - - - - - -
19.07.2018 06:00:00 - - - - - - - -
19.07.2018 05:00:00 23,8 23,6 15 8 W 1013,2 20 -
19.07.2018 04:00:00 23,8 23,5 15 8 W 1013,2 20 -
19.07.2018 03:00:00 24,0 23,5 13 7 W 1013,3 25 -
19.07.2018 02:00:00 24,4 22,7 13 7 NW 1013,3 20 -
19.07.2018 01:00:00 24,4 22,7 13 7 NW 1013,4 15 -
19.07.2018 00:00:00 24,2 23,7 9 5 NW 1013,1 20 -
18.07.2018 23:00:00 24,2 23,5 8 4 NW 1013,4 20 -
18.07.2018 22:00:00 24,8 24,0 9 5 NW 1013,2 10 -
18.07.2018 21:00:00 24,6 23,9 13 7 WNW 1013,2 15 -
18.07.2018 20:00:00 25,4 24,0 13 7 WNW 1013,2 20 60
18.07.2018 19:00:00 26,4 25,0 15 8 WNW 1013,4 20 60
18.07.2018 18:00:00 27,8 24,0 11 6 WNW 1013,7 15 60
18.07.2018 17:00:00 28,0 24,0 11 6 W 1013,6 20 60
18.07.2018 16:00:00 28,0 24,7 13 7 WZW 1014,0 15 60
18.07.2018 15:00:00 27,8 26,0 11 6 WZW 1013,9 15 60
18.07.2018 14:00:00 27,6 25,4 8 4 ZW 1013,9 15 60
18.07.2018 13:00:00 26,0 24,8 4 2 WZW 1014,0 10 24
18.07.2018 12:00:00 26,0 25,0 4 2 W 1013,9 8 12
18.07.2018 11:00:00 27,6 25,4 4 2 ZZW 1013,4 8 60
18.07.2018 10:00:00 27,0 24,8 8 4 NO 1013,1 8 60
18.07.2018 09:00:00 25,8 24,0 4 2 W 1013,1 8 60
18.07.2018 08:00:00 24,8 24,0 5 3 ONO 1012,4 8 18
18.07.2018 07:00:00 23,8 23,1 5 3 NO 1012,2 10 -
18.07.2018 06:00:00 23,2 22,7 5 3 N 1011,9 10 -
18.07.2018 05:00:00 23,4 22,9 21 11 NNW 1011,4 20 -
18.07.2018 04:00:00 23,6 22,8 28 15 N 1011,9 20 -
18.07.2018 03:00:00 23,8 22,8 26 14 NW 1011,7 20 -
18.07.2018 02:00:00 23,8 23,0 34 18 ZZW 1011,7 20 -
18.07.2018 01:00:00 23,8 23,1 24 13 NW 1011,4 20 -
18.07.2018 00:00:00 23,8 23,0 31 17 WNW 1011,3 20 -
17.07.2018 23:00:00 24,0 23,7 39 21 WNW 1011,1 20 -
17.07.2018 22:00:00 24,0 23,5 41 22 WNW 1011,0 20 -
17.07.2018 21:00:00 24,4 23,7 39 21 WNW 1010,2 10 -
17.07.2018 20:00:00 24,6 23,4 37 20 WNW 1010,8 10 30
17.07.2018 19:00:00 25,0 23,8 35 19 WNW 1010,6 20 60
17.07.2018 18:00:00 25,2 23,4 37 20 WNW 1010,6 30 60
17.07.2018 17:00:00 25,4 22,9 34 18 WNW 1010,5 30 60
17.07.2018 16:00:00 25,0 22,9 29 16 WNW 1010,6 30 60
17.07.2018 15:00:00 25,4 22,9 28 15 WNW 1010,5 30 60
17.07.2018 14:00:00 25,0 22,7 31 17 WNW 1009,5 30 60
17.07.2018 13:00:00 24,2 23,0 35 19 WNW 1009,1 10 60
17.07.2018 12:00:00 23,8 22,4 31 17 WNW 1009,2 10 60
17.07.2018 11:00:00 25,0 23,1 16 9 WNW 1008,3 10 60
17.07.2018 10:00:00 24,2 22,1 9 5 NNW 1008,1 10 60
17.07.2018 09:00:00 23,0 21,3 16 9 WNW 1008,2 10 48
17.07.2018 08:00:00 22,6 21,4 15 8 W 1007,9 10 6
17.07.2018 07:00:00 23,0 21,3 26 14 WNW 1007,5 10 0
17.07.2018 06:00:00 22,6 20,9 28 15 WNW 1007,2 9 -
17.07.2018 05:00:00 22,6 21,4 15 8 ZO 1007,3 9 -
17.07.2018 04:00:00 22,2 21,2 13 7 ONO 1008,1 10 -
17.07.2018 03:00:00 22,0 21,0 18 10 ONO 1009,1 10 -
17.07.2018 02:00:00 22,2 21,2 8 4 NO 1010,0 10 -

tt = temperatuur
td = dauwpunt
ff = windsnelheid
dd = windrichting
ppp = luchtdruk
vv = zicht
sd = Zonneschijnduur

Weerstations in de omgeving